Tracking 28531 objects as of 27-Feb-2024
HD Live streaming from Space Station
objects crossing your sky now

STARLINK-5196

Track STARLINK-5196 now!
10-day predictions
STARLINK-5196 is classified as:


NORAD ID: 55319
Int'l Code: 2023-010BC
Perigee: 577.2 km
Apogee: 581.2 km
Inclination: 70.0 °
Period: 96.1 minutes
Semi major axis: 6950 km
RCS: Unknown
Launch date: January 19, 2023
Source: United States (US)
Launch site: AIR FORCE WESTERN TEST RANGE (AFWTR)
Your satellite tracking list
Your tracking list is empty




NASA's NSSDC Master Catalog

Two Line Element Set (TLE):
1 55319U 23010BC  24057.45447092  .00000585  00000-0  56804-4 0  9997
2 55319  69.9996  75.8552 0002839 264.8327  95.2508 14.98328093 63464
Source of the keplerian elements: AFSPC